Location: Fours
(44.3167°N, 6.7000°E)
Time: 11:59:38
(UTC+00:00)

Timation 2 Rocket - Pass Details

Date: 02 June 2022
Orbit: 904 x 1077 km, 70.0° (Epoch: 01 July)

Event Time Altitude Azimuth Distance (km) Brightness Sun altitude
Rises 21:01:03 0° 316° (NW) 3,791 8.9 -15.1°
Reaches altitude 10° 21:05:04 10° 292° (WNW) 2,865 7.3 -15.5°
Maximum altitude 21:08:14 14° 264° (W) 2,599 6.6 -15.8°
Drops below altitude 10° 21:11:26 10° 235° (SW) 2,892 6.5 -16.1°
Sets 21:15:34 0° 212° (SSW) 3,854 6.9 -16.5°
